Redmond, OR

8:42 PM PST on November 19, 2019 (GMT -0800)
Roberts Field Airport

Weather History for KRDM - October, 2019

Change the Weather History Date:

Monday, October 21, 2019

  Actual Average Record
Temperature  
Mean Temperature 54 °F 46 °F  
Max Temperature 63 °F 61 °F 86 °F (1999)
Min Temperature 45 °F 30 °F 13 °F (1961)
Degree Days  
Heating Degree Days 11 19  
Month to date heating degree days 405 336  
Since 1 July heating degree days 670 735  
Cooling Degree Days 0 0  
Month to date cooling degree days 0 0  
Year to date cooling degree days 293 222  
Growing Degree Days 4 (Base 50)    
Moisture  
Dew Point 38 °F    
Average Humidity 61    
Maximum Humidity 83    
Minimum Humidity 39    
Precipitation  
Precipitation 0.00 in 0.02 in 0.29 in (1992)
Month to date precipitation 0.28 0.38  
Year to date precipitation 9.27 6.52  
Sea Level Pressure  
Sea Level Pressure 30.25 in    
Wind  
Wind Speed 5 mph (North)    
Max Wind Speed 12 mph    
Max Gust Speed 23 mph    
Visibility 10 miles    
Events      
T = Trace of Precipitation, MM = Missing Value Source: NWS Daily Summary

Daily Weather History Graph

Daily Weather History Graph

Search for Another Location

Airport or City:

Astronomy

Oct. 21, 2019 Rise Set
Actual Time 7:26 AM PDT 6:10 PM PDT
Civil Twilight 6:57 AM PDT 6:40 PM PDT
Nautical Twilight 6:23 AM PDT 7:13 PM PDT
Astronomical Twilight 5:50 AM PDT 7:47 PM PDT
Moon No Moon Rise 2:56 PM PDT (10/21)
Length of Visible Light 11h 42m
Length of Day
10h 43m
Waning Gibbous, 47% of the Moon is Illuminated
Oct 21
Waning Gibbous
Oct 27
New
Nov 4
First Quarter
Nov 12
Full
Nov 19
Last Quarter

Hourly Weather History & Observations

Time (PDT) Temp. Windchill Dew Point Humidity Pressure Visibility Wind Dir Wind Speed Gust Speed Precip Events Conditions
12:56 AM 51.1 °F - 35.1 °F 54% 30.13 in 10.0 mi NW 11.5 mph 23.0 mph N/A   Overcast
1:56 AM 51.1 °F - 34.0 °F 52% 30.15 in 10.0 mi NW 11.5 mph 23.0 mph N/A   Overcast
2:56 AM 50.0 °F - 34.0 °F 54% 30.17 in 10.0 mi Variable 4.6 mph - N/A   Overcast
3:56 AM 48.9 °F - 35.1 °F 59% 30.18 in 10.0 mi Calm Calm - N/A   Overcast
4:56 AM 48.0 °F - 35.1 °F 61% 30.19 in 10.0 mi ENE 4.6 mph - N/A   Overcast
5:56 AM 46.9 °F - 36.0 °F 66% 30.22 in 10.0 mi NNW 3.5 mph - N/A   Overcast
6:56 AM 48.9 °F - 36.0 °F 61% 30.25 in 10.0 mi NW 3.5 mph - N/A   Overcast
7:56 AM 48.9 °F - 37.0 °F 64% 30.25 in 10.0 mi Calm Calm - N/A   Overcast
8:56 AM 50.0 °F - 37.9 °F 63% 30.27 in 10.0 mi East 3.5 mph - N/A   Overcast
9:56 AM 52.0 °F - 35.1 °F 53% 30.28 in 10.0 mi SSE 4.6 mph - N/A   Mostly Cloudy
10:56 AM 55.9 °F - 35.1 °F 45% 30.28 in 10.0 mi Variable 4.6 mph - N/A   Partly Cloudy
11:56 AM 59.0 °F - 35.1 °F 41% 30.28 in 10.0 mi Variable 3.5 mph - N/A   Partly Cloudy
12:56 PM 61.0 °F - 36.0 °F 39% 30.26 in 10.0 mi Variable 4.6 mph - N/A   Overcast
1:56 PM 62.1 °F - 37.0 °F 39% 30.23 in 10.0 mi West 5.8 mph - N/A   Overcast
2:56 PM 62.1 °F - 37.9 °F 41% 30.25 in 10.0 mi WNW 5.8 mph - N/A   Overcast
3:56 PM 62.1 °F - 39.9 °F 44% 30.27 in 10.0 mi Calm Calm - N/A   Mostly Cloudy
4:56 PM 61.0 °F - 43.0 °F 52% 30.27 in 10.0 mi NW 9.2 mph - N/A   Mostly Cloudy
5:56 PM 61.0 °F - 44.1 °F 54% 30.27 in 10.0 mi North 10.4 mph - N/A   Overcast
6:56 PM 57.0 °F - 44.1 °F 62% 30.28 in 10.0 mi North 4.6 mph - N/A   Mostly Cloudy
8:56 PM 53.1 °F - 44.1 °F 71% 30.33 in 10.0 mi Calm Calm - N/A   Overcast
9:56 PM 51.1 °F - 43.0 °F 74% 30.33 in 10.0 mi SE 3.5 mph - N/A   Partly Cloudy
10:56 PM 48.9 °F - 42.1 °F 77% 30.34 in 10.0 mi SE 5.8 mph - N/A   Mostly Cloudy
11:56 PM 45.0 °F 43.5 °F 39.9 °F 82% 30.34 in 10.0 mi SE 3.5 mph - N/A   Clear